Hourly Weather Barrinha

Today, 29 November, Sunday

Time Temperature Precipitation Wind Pressure Humidity
00:00 +24°C° 0 mm 1 mps 718 mmHg 67%
01:00 +24°C° 0 mm 1 mps 718 mmHg 68%
02:00 +23°C° 0 mm 1 mps 717 mmHg 70%
03:00 +23°C° 0 mm 2 mps 717 mmHg 72%
04:00 +23°C° 0 mm 1 mps 717 mmHg 73%
05:00 +23°C° 0 mm 1 mps 717 mmHg 75%
06:00 +22°C° 0 mm 1 mps 718 mmHg 76%
07:00 +25°C° 0 mm 2 mps 718 mmHg 68%
08:00 +27°C° 0 mm 3 mps 719 mmHg 61%
09:00 +29°C° 0 mm 3 mps 719 mmHg 53%
10:00 +31°C° 0 mm 3 mps 719 mmHg 47%
11:00 +34°C° 0 mm 3 mps 719 mmHg 42%
12:00 +35°C° 0 mm 3 mps 719 mmHg 36%
13:00 +35°C° 0 mm 2 mps 718 mmHg 36%
14:00 +35°C° 0 mm 2 mps 717 mmHg 35%
15:00 +35°C° 0 mm 2 mps 716 mmHg 35%
16:00 +34°C° 0 mm 2 mps 716 mmHg 39%
17:00 +32°C° 0 mm 1 mps 716 mmHg 44%
18:00 +31°C° 0 mm 1 mps 716 mmHg 48%
19:00 +29°C° 0 mm 1 mps 716 mmHg 51%
20:00 +28°C° 0 mm 1 mps 716 mmHg 54%
21:00 +27°C° 0 mm 1 mps 717 mmHg 57%
22:00 +27°C° 0 mm 1 mps 717 mmHg 60%
23:00 +26°C° 0 mm 1 mps 717 mmHg 63%

Tomorrow, 30 November, Monday

Time Temperature Precipitation Wind Pressure Humidity
00:00 +25°C° 0 mm 1 mps 717 mmHg 66%
01:00 +25°C° 0 mm 1 mps 716 mmHg 67%
02:00 +24°C° 0 mm 1 mps 716 mmHg 69%
03:00 +24°C° 0 mm 1 mps 716 mmHg 70%
04:00 +23°C° 0 mm 1 mps 716 mmHg 71%
05:00 +23°C° 0 mm 1 mps 716 mmHg 72%
06:00 +23°C° 0 mm 1 mps 716 mmHg 74%
07:00 +25°C° 0 mm 2 mps 716 mmHg 66%
08:00 +28°C° 0 mm 2 mps 717 mmHg 58%
09:00 +30°C° 0 mm 3 mps 717 mmHg 49%
10:00 +33°C° 0 mm 3 mps 717 mmHg 45%
11:00 +35°C° 0 mm 2 mps 717 mmHg 40%
12:00 +36°C° 0 mm 2 mps 717 mmHg 35%
13:00 +36°C° 0 mm 2 mps 716 mmHg 36%
14:00 +36°C° 0 mm 2 mps 715 mmHg 36%
15:00 +35°C° 0 mm 2 mps 715 mmHg 36%
16:00 +34°C° 0 mm 2 mps 714 mmHg 41%
17:00 +32°C° 0 mm 1 mps 714 mmHg 45%
18:00 +31°C° 0 mm 1 mps 714 mmHg 49%
19:00 +30°C° 0 mm 1 mps 714 mmHg 52%
20:00 +29°C° 0 mm 1 mps 714 mmHg 54%
21:00 +27°C° 0 mm 1 mps 714 mmHg 56%
22:00 +27°C° 0 mm 1 mps 714 mmHg 58%
23:00 +26°C° 0 mm 1 mps 714 mmHg 60%

Day after tomorrow, 1 December, Tuesday

Time Temperature Precipitation Wind Pressure Humidity
00:00 +26°C° 0 mm 1 mps 714 mmHg 62%
01:00 +25°C° 0 mm 1 mps 714 mmHg 65%
02:00 +25°C° 0 mm 1 mps 714 mmHg 69%
03:00 +24°C° 0 mm 1 mps 713 mmHg 72%
04:00 +24°C° 0 mm 1 mps 713 mmHg 74%
05:00 +24°C° 0 mm 1 mps 714 mmHg 76%
06:00 +24°C° 0 mm 1 mps 714 mmHg 78%
07:00 +26°C° 0 mm 1 mps 715 mmHg 69%
08:00 +29°C° 0 mm 2 mps 715 mmHg 59%
09:00 +31°C° 0 mm 2 mps 716 mmHg 50%
10:00 +34°C° 0 mm 3 mps 716 mmHg 46%
11:00 +35°C° 0 mm 3 mps 715 mmHg 41%
12:00 +37°C° 0 mm 3 mps 715 mmHg 37%
13:00 +37°C° 0 mm 3 mps 714 mmHg 36%
14:00 +37°C° 0 mm 2 mps 714 mmHg 36%
15:00 +37°C° 0 mm 2 mps 713 mmHg 35%
16:00 +36°C° 0 mm 2 mps 713 mmHg 39%
17:00 +34°C° 0 mm 1 mps 712 mmHg 43%
18:00 +33°C° 0 mm 1 mps 712 mmHg 46%
19:00 +31°C° 0.1 mm 1 mps 712 mmHg 50%
20:00 +29°C° 0.1 mm 1 mps 713 mmHg 54%
21:00 +28°C° 0.1 mm 1 mps 713 mmHg 57%
22:00 +26°C° 1.1 mm 2 mps 713 mmHg 68%
23:00 +25°C° 1.1 mm 3 mps 714 mmHg 79%

2 December, Wednesday

Time Temperature Precipitation Wind Pressure Humidity
00:00 +23°C° 1.1 mm 4 mps 714 mmHg 90%
01:00 +22°C° 0.7 mm 3 mps 714 mmHg 91%
02:00 +23°C° 0.7 mm 2 mps 713 mmHg 92%
03:00 +23°C° 0.7 mm 2 mps 713 mmHg 92%
04:00 +23°C° 0.6 mm 2 mps 713 mmHg 92%
05:00 +23°C° 0.6 mm 2 mps 713 mmHg 92%
06:00 +23°C° 0.6 mm 2 mps 714 mmHg 92%
07:00 +24°C° 0 mm 2 mps 714 mmHg 89%
08:00 +25°C° 0 mm 2 mps 714 mmHg 86%
09:00 +26°C° 0 mm 2 mps 714 mmHg 83%
10:00 +28°C° 0 mm 2 mps 714 mmHg 74%
11:00 +29°C° 0 mm 2 mps 714 mmHg 65%
12:00 +31°C° 0 mm 2 mps 714 mmHg 55%
13:00 +33°C° 0.1 mm 3 mps 714 mmHg 53%
14:00 +34°C° 0.1 mm 3 mps 714 mmHg 51%
15:00 +35°C° 0.1 mm 3 mps 713 mmHg 49%
16:00 +34°C° 0 mm 2 mps 713 mmHg 52%
17:00 +32°C° 0 mm 1 mps 713 mmHg 56%
18:00 +31°C° 0 mm 1 mps 712 mmHg 60%
19:00 +28°C° 1.6 mm 1 mps 713 mmHg 70%
20:00 +26°C° 1.6 mm 2 mps 713 mmHg 80%
21:00 +24°C° 1.6 mm 3 mps 713 mmHg 90%
22:00 +24°C° 2.2 mm 3 mps 714 mmHg 92%
23:00 +22°C° 2.2 mm 3 mps 714 mmHg 93%

3 December, Thursday

Time Temperature Precipitation Wind Pressure Humidity
00:00 +22°C° 2.2 mm 3 mps 714 mmHg 94%
01:00 +22°C° 0.7 mm 3 mps 714 mmHg 94%
02:00 +22°C° 0.7 mm 4 mps 713 mmHg 95%
03:00 +22°C° 0.7 mm 4 mps 713 mmHg 95%
04:00 +22°C° 0.1 mm 3 mps 713 mmHg 94%
05:00 +23°C° 0.1 mm 2 mps 713 mmHg 92%
06:00 +23°C° 0.1 mm 1 mps 713 mmHg 91%
07:00 +24°C° 0.3 mm 2 mps 714 mmHg 87%
08:00 +26°C° 0.3 mm 2 mps 714 mmHg 83%
09:00 +27°C° 0.3 mm 3 mps 715 mmHg 79%
10:00 +28°C° 1.6 mm 4 mps 715 mmHg 77%
11:00 +28°C° 1.6 mm 5 mps 715 mmHg 76%
12:00 +29°C° 1.6 mm 5 mps 714 mmHg 74%
13:00 +28°C° 1.2 mm 5 mps 714 mmHg 79%
14:00 +26°C° 1.2 mm 5 mps 714 mmHg 84%
15:00 +25°C° 1.2 mm 5 mps 713 mmHg 89%
16:00 +24°C° 1.8 mm 3 mps 713 mmHg 90%
17:00 +24°C° 1.8 mm 2 mps 713 mmHg 92%
18:00 +23°C° 1.8 mm 1 mps 713 mmHg 93%
19:00 +23°C° 0 mm 1 mps 713 mmHg 94%
20:00 +23°C° 0 mm 1 mps 714 mmHg 94%
21:00 +23°C° 0 mm 1 mps 714 mmHg 95%
22:00 +23°C° 0.1 mm 2 mps 714 mmHg 95%
23:00 +21°C° 0.1 mm 2 mps 714 mmHg 95%

4 December, Friday

Time Temperature Precipitation Wind Pressure Humidity
00:00 +21°C° 0.1 mm 2 mps 714 mmHg 96%
01:00 +21°C° 0.4 mm 2 mps 714 mmHg 96%
02:00 +21°C° 0.4 mm 2 mps 713 mmHg 96%
03:00 +21°C° 0.4 mm 2 mps 713 mmHg 96%
04:00 +22°C° 0.6 mm 1 mps 713 mmHg 95%
05:00 +22°C° 0.6 mm 1 mps 714 mmHg 95%
06:00 +22°C° 0.6 mm 1 mps 714 mmHg 95%
07:00 +23°C° 0.1 mm 1 mps 714 mmHg 91%
08:00 +24°C° 0.1 mm 1 mps 715 mmHg 88%
09:00 +26°C° 0.1 mm 1 mps 715 mmHg 84%
10:00 +27°C° 0 mm 2 mps 715 mmHg 77%
11:00 +29°C° 0 mm 2 mps 715 mmHg 71%
12:00 +30°C° 0 mm 2 mps 715 mmHg 64%
13:00 +31°C° 0.3 mm 3 mps 714 mmHg 62%
14:00 +33°C° 0.3 mm 3 mps 714 mmHg 59%
15:00 +33°C° 0.3 mm 3 mps 714 mmHg 57%
16:00 +30°C° 1.5 mm 3 mps 713 mmHg 68%
17:00 +27°C° 1.5 mm 3 mps 713 mmHg 79%
18:00 +25°C° 1.5 mm 3 mps 713 mmHg 90%
19:00 +24°C° 0.6 mm 2 mps 714 mmHg 91%
20:00 +24°C° 0.6 mm 2 mps 714 mmHg 93%
21:00 +23°C° 0.6 mm 1 mps 715 mmHg 94%
22:00 +23°C° 0.1 mm 1 mps 715 mmHg 94%
23:00 +23°C° 0.1 mm 1 mps 715 mmHg 94%
Show more

We Need Your Consent

Meteoprog and our Service Providers may store and access personal data such as cookies, device identifiers or other similar technologies on your device and process such data to personalise content and ads, as well as provide social media features and to analyse the traffic.

  • Store and/or access information on your device

    Cookies, device identifiers or other information can be stored or accessed on your device for the purposes indicated above.

  • Personalised ads and content, ad and content measurement, audience insights, and products development

    Ads and content can be personalised based on a profile. More data can be added to better personalise ads and content. Ad and content performance can be measured. Insights about the audience who saw the ads and content can be derived. Such data can be used to develop or improve user’s experience, systems and software.

By clicking ‘I Agree’ you will allow the use of indicated cookies, device identifiers, web beacons or other similar technologies. Your settings can be changed in the browser on your device.

For certain purposes, legitimate interests may be relied on, rather than consent. You can read more about this in our Privacy and Cookie Policy.